Location: Krakow
(50.0830°N, 19.9170°E)
Time: 19:30:22
(UTC+01:00)

Altair - Pass Details

Date: 01 December 2023
Orbit: 1501 x 1682 km, 47.2° (Epoch: 02 March)

Event Time Altitude Azimuth Distance (km) Brightness Sun altitude
Rises 11:51:53 0° 265° (W) 4,744 10.2 17.9°
Reaches altitude 10° 11:54:59 10° 264° (W) 3,737 9.8 17.9°
Maximum altitude 12:04:22 76° 181° (S) 1,560 8.1 17.7°
Drops below altitude 10° 12:13:30 10° 98° (E) 3,653 9.5 17.5°
Sets 12:16:30 0° 97° (E) 4,633 10.0 17.4°
